Location: Julian California
(33.0790°N, 116.6010°W)
Time: 06:55:02
(UTC-07:00)

Genesis I - Pass Details

Date: 12 July 2018
Orbit: 481 x 547 km, 64.5° (Epoch: 22 July)

Event Time Altitude Azimuth Distance (km) Brightness Sun altitude
Rises 21:56:15 0° 331° (NNW) 2,708 8.2 -20.9°
Reaches altitude 10° 21:58:28 10° 331° (NNW) 1,808 7.0 -21.2°
Maximum altitude 22:02:33 87° 244° (WSW) 542 3.1 -21.8°
Enters shadow 22:02:46 79° 166° (SSE) 550 3.1 -21.8°
